Вернуться в каталог

METEOR 3M

АктивенПогодаSSO
NORAD 27001·PAYLOAD·🇷🇺 Russia

Запущен Dec 10, 2001 с Baikonur Cosmodrome

Loading…

Ближайшие Пролёты (ближайшие 24 часа)

TLE

СвежийSource: Space-Track

Эпоха: Sep 14, 2026, 11:54 UTC

1 27001U 01056A   26257.49639501 -.00000031  00000-0  18677-4 0  9999
2 27001  99.8241  85.5873 0013294 333.0124  57.9055 13.69047510237106

Отслеживайте METEOR 3M в реальном времени с AllMySat

Download on the App Store